Tracking 28790 objects as of 19-Apr-2024
HD Live streaming from Space Station
objects crossing your sky now

STARLINK-2271

Track STARLINK-2271 now!
10-day predictions
STARLINK-2271 is classified as:


NORAD ID: 48008
Int'l Code: 2021-024AH
Perigee: 553.4 km
Apogee: 555.4 km
Inclination: 53.1 °
Period: 95.6 minutes
Semi major axis: 6925 km
RCS: Unknown
Launch date: March 24, 2021
Source: United States (US)
Launch site: AIR FORCE EASTERN TEST RANGE (AFETR)
Your satellite tracking list
Your tracking list is empty




NASA's NSSDC Master Catalog

Two Line Element Set (TLE):
1 48008U 21024AH  24110.33799775  .00001655  00000-0  13000-3 0  9991
2 48008  53.0533  96.2351 0001484  99.5173 260.5984 15.06386582171465
Source of the keplerian elements: AFSPC